SRR335 LEBL-OMAA

Flight info

Callsign SRR335
Flight time N/A
Altitude 33000
Route LARPA N859 GENIO DCT LUXUR UM134 ANB UG6 DIMAO UL874 OMENI DCT SUDIK DCT BONAR M980 LOSUL M855 MMA P751 DASUM Y234 FYM M872 WEJ/N0488F350 M872 BDB Y214 RAPMA DCT KUVSO DCT KATIT DCT DANUX DCT TANSU/N0500F330 G783 VAVIM P899 ROVOS
Aircraft B77L/H-SDE1E2E3FGHIJ2J3J4J5M1RWXY/LB1D1

Departure

Time 2026-05-06 19:26
Airport Josep Tarradellas Barcelona-El Prat Airport (LEBL)

Arrival

Time N/A
Airport Zayed International Airport (OMAA)
Time Latitude Longitude Altitude Speed Heading
2026-05-06 19:03 41.29706 2.06597 7 ft 0 kts 245°
2026-05-06 19:10 41.29709 2.06605 7 ft 2 kts 245°
2026-05-06 19:10 41.29716 2.06626 7 ft 2 kts 245°
2026-05-06 19:10 41.29723 2.06647 8 ft 2 kts 245°
2026-05-06 19:11 41.29730 2.06668 9 ft 2 kts 245°
2026-05-06 19:11 41.29737 2.06689 9 ft 2 kts 245°
2026-05-06 19:11 41.29744 2.06710 9 ft 3 kts 233°
2026-05-06 19:11 41.29757 2.06726 10 ft 3 kts 193°
2026-05-06 19:12 41.29775 2.06726 10 ft 1 kts 155°
2026-05-06 19:12 41.29776 2.06726 10 ft 0 kts 155°
2026-05-06 19:15 41.29774 2.06727 10 ft 3 kts 155°
2026-05-06 19:15 41.29726 2.06757 7 ft 12 kts 155°
2026-05-06 19:15 41.29642 2.06697 7 ft 19 kts 242°
2026-05-06 19:15 41.29587 2.06546 7 ft 18 kts 244°
2026-05-06 19:16 41.29533 2.06394 7 ft 18 kts 246°
2026-05-06 19:16 41.29483 2.06240 7 ft 18 kts 246°
2026-05-06 19:16 41.29392 2.06139 7 ft 18 kts 187°
2026-05-06 19:16 41.29270 2.06172 7 ft 18 kts 155°
2026-05-06 19:17 41.29156 2.06243 7 ft 18 kts 155°
2026-05-06 19:17 41.29055 2.06339 7 ft 18 kts 122°
2026-05-06 19:17 41.29007 2.06493 7 ft 18 kts 103°
2026-05-06 19:17 41.29036 2.06651 7 ft 18 kts 64°
2026-05-06 19:18 41.29091 2.06802 7 ft 18 kts 64°
2026-05-06 19:18 41.29145 2.06953 7 ft 18 kts 66°
2026-05-06 19:18 41.29195 2.07107 7 ft 18 kts 66°
2026-05-06 19:18 41.29245 2.07261 7 ft 18 kts 66°
2026-05-06 19:19 41.29296 2.07414 7 ft 18 kts 66°
2026-05-06 19:19 41.29346 2.07568 7 ft 18 kts 66°
2026-05-06 19:19 41.29396 2.07722 7 ft 18 kts 66°
2026-05-06 19:19 41.29447 2.07875 7 ft 18 kts 66°
2026-05-06 19:20 41.29497 2.08029 7 ft 18 kts 66°
2026-05-06 19:20 41.29549 2.08181 7 ft 18 kts 66°
2026-05-06 19:20 41.29586 2.08339 7 ft 18 kts 72°
2026-05-06 19:20 41.29605 2.08498 7 ft 18 kts 115°
2026-05-06 19:21 41.29503 2.08592 7 ft 18 kts 151°
2026-05-06 19:21 41.29388 2.08660 8 ft 18 kts 156°
2026-05-06 19:21 41.29272 2.08727 10 ft 18 kts 156°
2026-05-06 19:21 41.29156 2.08793 8 ft 18 kts 156°
2026-05-06 19:22 41.29041 2.08860 7 ft 18 kts 156°
2026-05-06 19:22 41.28962 2.08975 7 ft 18 kts 92°
2026-05-06 19:22 41.28999 2.09134 8 ft 18 kts 66°
2026-05-06 19:22 41.29051 2.09286 8 ft 18 kts 65°
2026-05-06 19:23 41.29104 2.09438 8 ft 18 kts 65°
2026-05-06 19:23 41.29156 2.09587 8 ft 18 kts 65°
2026-05-06 19:23 41.29214 2.09737 8 ft 18 kts 61°
2026-05-06 19:23 41.29262 2.09891 7 ft 18 kts 67°
2026-05-06 19:24 41.29272 2.10022 8 ft 0 kts 104°
2026-05-06 19:24 41.29263 2.10062 8 ft 7 kts 107°
2026-05-06 19:25 41.29248 2.10125 8 ft 7 kts 106°
2026-05-06 19:25 41.29231 2.10200 10 ft 11 kts 119°
2026-05-06 19:25 41.29173 2.10176 9 ft 11 kts 236°
2026-05-06 19:25 41.29125 2.10049 10 ft 31 kts 245°
2026-05-06 19:26 41.28904 2.09413 9 ft 120 kts 245°
2026-05-06 19:26 41.28442 2.08062 53 ft 194 kts 245°
2026-05-06 19:26 41.27832 2.06383 652 ft 209 kts 246°
2026-05-06 19:26 41.27119 2.04602 1293 ft 227 kts 237°
2026-05-06 19:27 41.26011 2.03099 2212 ft 231 kts 208°
2026-05-06 19:27 41.24443 2.02624 2829 ft 239 kts 178°
2026-05-06 19:27 41.22843 2.03259 3460 ft 244 kts 146°
2026-05-06 19:27 41.21775 2.04921 4175 ft 240 kts 115°
2026-05-06 19:28 41.20992 2.06913 4511 ft 252 kts 134°
2026-05-06 19:28 41.19494 2.08137 4733 ft 261 kts 174°
2026-05-06 19:28 41.17725 2.07879 5278 ft 258 kts 208°
2026-05-06 19:28 41.16143 2.06738 5807 ft 261 kts 207°
2026-05-06 19:29 41.14341 2.06293 6383 ft 274 kts 173°
2026-05-06 19:29 41.12599 2.07326 7113 ft 280 kts 144°
2026-05-06 19:29 41.11094 2.09004 7616 ft 285 kts 146°
2026-05-06 19:29 41.09435 2.10497 8230 ft 289 kts 153°
2026-05-06 19:30 41.07679 2.11797 9029 ft 289 kts 156°
2026-05-06 19:30 41.05866 2.12976 9759 ft 291 kts 159°
2026-05-06 19:30 41.04009 2.14080 10369 ft 297 kts 161°
2026-05-06 19:30 41.02045 2.15175 10595 ft 318 kts 161°
2026-05-06 19:31 40.99949 2.16292 10772 ft 340 kts 162°
2026-05-06 19:31 40.97672 2.17472 10959 ft 362 kts 162°
2026-05-06 19:31 40.92808 2.19940 12038 ft 383 kts 162°
2026-05-06 19:32 40.90303 2.21197 12780 ft 387 kts 162°
2026-05-06 19:32 40.87772 2.22463 13582 ft 390 kts 163°
2026-05-06 19:32 40.85231 2.23730 14338 ft 392 kts 163°
2026-05-06 19:32 40.82665 2.25005 14999 ft 396 kts 164°
2026-05-06 19:33 40.80069 2.26293 15637 ft 401 kts 165°
2026-05-06 19:33 40.77443 2.27595 16284 ft 405 kts 165°
2026-05-06 19:33 40.74791 2.28911 16943 ft 409 kts 165°
2026-05-06 19:33 40.72122 2.30234 17622 ft 411 kts 166°
2026-05-06 19:34 40.69428 2.31570 18247 ft 415 kts 166°
2026-05-06 19:34 40.66715 2.32912 18813 ft 419 kts 166°
2026-05-06 19:34 40.63974 2.34266 19034 ft 421 kts 166°
2026-05-06 19:34 40.61218 2.35532 19012 ft 417 kts 170°
2026-05-06 19:35 40.58458 2.36507 19029 ft 415 kts 173°
2026-05-06 19:35 40.55637 2.37397 19430 ft 418 kts 173°
2026-05-06 19:35 40.52807 2.38328 20068 ft 419 kts 172°
2026-05-06 19:35 40.49978 2.39297 20694 ft 421 kts 172°
2026-05-06 19:36 40.47134 2.40283 21256 ft 424 kts 172°
2026-05-06 19:36 40.44273 2.41276 21784 ft 427 kts 171°
2026-05-06 19:36 40.41384 2.42277 22302 ft 430 kts 171°
2026-05-06 19:36 40.38482 2.43284 22857 ft 433 kts 171°
2026-05-06 19:37 40.35560 2.44295 23401 ft 436 kts 171°
2026-05-06 19:37 40.32613 2.45314 23859 ft 439 kts 171°
2026-05-06 19:37 40.29654 2.46337 24326 ft 441 kts 171°
2026-05-06 19:37 40.27677 2.47020 24624 ft 443 kts 172°
2026-05-06 19:38 40.23717 2.48386 25224 ft 445 kts 172°
2026-05-06 19:38 40.20708 2.49422 25620 ft 448 kts 171°
2026-05-06 19:38 40.17679 2.50464 26018 ft 451 kts 171°